Location: México DF
(19.4326°N, 99.1332°W)
Time: 12:20:21
(UTC+00:00)

ISS - Pass Details

Date: 09 July 2025
Orbit: 415 x 418 km, 51.6° (Epoch: 17 July)

Event Time Altitude Azimuth Distance (km) Brightness Sun altitude
Rises 01:09:23 0° 199° (SSW) 2,337 0.0 1.2°
Reaches altitude 10° 01:11:37 10° 188° (S) 1,477 -1.1 0.8°
Maximum altitude 01:14:33 29° 126° (SE) 789 -2.9 0.1°
Drops below altitude 10° 01:17:28 10° 64° (ENE) 1,480 -1.3 -0.5°
Sets 01:19:43 0° 52° (NE) 2,343 -0.2 -1.0°
